TimeCST,TemperatureF,Dew PointF,Humidity,Sea Level PressureIn,VisibilityMPH,Wind Direction,Wind SpeedMPH,Gust SpeedMPH,PrecipitationIn,Events,Conditions,WindDirDegrees,DateUTC
12:53 AM,70.0,66.0,87,29.75,10.0,South,13.8,-,0.00,,Overcast,170,2012-12-20 06:53:00
1:53 AM,69.1,66.0,90,29.74,10.0,South,10.4,-,0.00,,Overcast,180,2012-12-20 07:53:00
2:53 AM,72.0,68.0,87,29.73,10.0,South,11.5,18.4,N/A,,Overcast,190,2012-12-20 08:53:00
3:19 AM,71.6,68.0,88,29.72,10.0,SSW,12.7,24.2,N/A,,Mostly Cloudy,200,2012-12-20 09:19:00
3:35 AM,73.4,68.0,83,29.72,10.0,SSW,11.5,24.2,N/A,,Mostly Cloudy,210,2012-12-20 09:35:00
3:53 AM,73.0,68.0,84,29.73,10.0,SW,13.8,23.0,N/A,,Mostly Cloudy,220,2012-12-20 09:53:00
4:20 AM,66.2,66.2,100,29.76,10.0,WNW,25.3,47.2,0.00,Rain,Light Rain,290,2012-12-20 10:20:00
4:27 AM,55.4,48.2,77,29.78,5.0,WNW,21.9,47.2,0.01,Rain,Light Rain,290,2012-12-20 10:27:00
4:37 AM,53.6,48.2,82,29.77,4.0,WNW,12.7,29.9,0.04,Rain,Heavy Rain,290,2012-12-20 10:37:00
4:53 AM,54.0,50.0,86,29.80,10.0,West,11.5,17.3,0.04,,Overcast,280,2012-12-20 10:53:00
5:53 AM,57.0,43.0,59,29.83,10.0,West,16.1,26.5,N/A,,Overcast,270,2012-12-20 11:53:00
6:53 AM,55.9,42.1,60,29.87,10.0,West,10.4,19.6,N/A,,Overcast,270,2012-12-20 12:53:00
7:53 AM,55.0,36.0,49,29.91,10.0,West,20.7,28.8,N/A,,Overcast,280,2012-12-20 13:53:00
8:53 AM,50.0,33.1,52,29.99,10.0,WNW,17.3,33.4,N/A,,Scattered Clouds,290,2012-12-20 14:53:00
9:53 AM,50.0,32.0,50,30.04,10.0,WNW,18.4,33.4,N/A,,Clear,290,2012-12-20 15:53:00
10:53 AM,51.1,30.9,46,30.06,10.0,WNW,16.1,28.8,N/A,,Clear,300,2012-12-20 16:53:00
11:53 AM,53.1,30.0,41,30.06,10.0,WNW,23.0,31.1,N/A,,Clear,290,2012-12-20 17:53:00
12:53 PM,54.0,30.0,40,30.08,10.0,WNW,18.4,31.1,N/A,,Clear,300,2012-12-20 18:53:00
1:53 PM,55.0,28.9,37,30.08,10.0,WNW,18.4,26.5,N/A,,Clear,290,2012-12-20 19:53:00
2:53 PM,54.0,28.0,37,30.10,10.0,NW,15.0,28.8,N/A,,Clear,310,2012-12-20 20:53:00
3:53 PM,53.1,28.9,40,30.13,10.0,WNW,11.5,28.8,N/A,,Clear,290,2012-12-20 21:53:00
4:53 PM,50.0,28.0,43,30.17,10.0,WNW,15.0,29.9,N/A,,Clear,290,2012-12-20 22:53:00
5:53 PM,48.0,27.0,44,30.21,10.0,WNW,12.7,18.4,N/A,,Clear,300,2012-12-20 23:53:00
6:53 PM,46.0,26.1,46,30.24,10.0,WNW,8.1,-,N/A,,Clear,290,2012-12-21 00:53:00
7:53 PM,45.0,25.0,46,30.27,10.0,WNW,8.1,18.4,N/A,,Clear,290,2012-12-21 01:53:00
8:53 PM,45.0,19.9,37,30.29,10.0,WNW,9.2,-,N/A,,Clear,290,2012-12-21 02:53:00
9:53 PM,43.0,19.9,40,30.31,10.0,West,9.2,-,N/A,,Clear,280,2012-12-21 03:53:00
10:53 PM,43.0,19.0,38,30.32,10.0,WNW,11.5,18.4,N/A,,Clear,300,2012-12-21 04:53:00
11:53 PM,41.0,19.0,41,30.33,10.0,WNW,9.2,-,N/A,,Clear,300,2012-12-21 05:53:00